When you browse on this site, cookies collect data to enhance your experience and personalize the content and advertising you see.
Visit our Privacy Policy to learn more. By continuing to use the site, you agree to this use of cookies and data.
  • En España
  • Lista de países
  • Para 7 días
  • Temperatura del agua
  • Mapa Satelital
  • El tiempo en el mapa
  • Informadores
  • user-avatar
    Iniciar sesión

    Tiempo cada hora Biskira

    Hoy, 24 Julio, Miércoles

    Tiempo Temperatura Precipitaciones Viento Presión Humedad
    00:00 +34°C° 0 mm 2 mps 753 mmHg 19%
    01:00 +34°C° 0 mm 2 mps 753 mmHg 19%
    02:00 +32°C° 0 mm 2 mps 752 mmHg 19%
    03:00 +31°C° 0 mm 2 mps 752 mmHg 19%
    04:00 +31°C° 0 mm 2 mps 752 mmHg 19%
    05:00 +31°C° 0 mm 2 mps 752 mmHg 19%
    06:00 +31°C° 0 mm 2 mps 753 mmHg 19%
    07:00 +34°C° 0 mm 3 mps 753 mmHg 18%
    08:00 +35°C° 0 mm 3 mps 753 mmHg 17%
    09:00 +36°C° 0 mm 3 mps 753 mmHg 17%
    10:00 +37°C° 0 mm 3 mps 753 mmHg 16%
    11:00 +38°C° 0 mm 3 mps 753 mmHg 15%
    12:00 +39°C° 0 mm 3 mps 752 mmHg 15%
    13:00 +40°C° 0 mm 2 mps 752 mmHg 14%
    14:00 +40°C° 0 mm 2 mps 751 mmHg 14%
    15:00 +41°C° 0 mm 2 mps 751 mmHg 14%
    16:00 +41°C° 0 mm 2 mps 751 mmHg 14%
    17:00 +41°C° 0 mm 2 mps 750 mmHg 14%
    18:00 +41°C° 0 mm 2 mps 750 mmHg 14%
    19:00 +40°C° 0 mm 2 mps 751 mmHg 16%
    20:00 +39°C° 0 mm 2 mps 751 mmHg 17%
    21:00 +36°C° 0 mm 1 mps 751 mmHg 18%
    22:00 +36°C° 0 mm 1 mps 751 mmHg 19%
    23:00 +35°C° 0 mm 1 mps 751 mmHg 20%

    Mañana, 25 Julio, Jueves

    Tiempo Temperatura Precipitaciones Viento Presión Humedad
    00:00 +34°C° 0 mm 1 mps 751 mmHg 21%
    01:00 +33°C° 0 mm 1 mps 751 mmHg 21%
    02:00 +34°C° 0 mm 2 mps 751 mmHg 21%
    03:00 +32°C° 0 mm 2 mps 751 mmHg 21%
    04:00 +34°C° 0 mm 2 mps 751 mmHg 21%
    05:00 +34°C° 0 mm 3 mps 751 mmHg 20%
    06:00 +34°C° 0 mm 3 mps 751 mmHg 19%
    07:00 +36°C° 0 mm 3 mps 752 mmHg 17%
    08:00 +37°C° 0 mm 4 mps 752 mmHg 16%
    09:00 +40°C° 0 mm 4 mps 752 mmHg 14%
    10:00 +41°C° 0 mm 4 mps 752 mmHg 13%
    11:00 +42°C° 0 mm 4 mps 751 mmHg 13%
    12:00 +43°C° 0 mm 4 mps 751 mmHg 12%
    13:00 +43°C° 0 mm 3 mps 750 mmHg 11%
    14:00 +44°C° 0 mm 3 mps 750 mmHg 11%
    15:00 +45°C° 0 mm 2 mps 749 mmHg 10%
    16:00 +44°C° 0 mm 3 mps 749 mmHg 10%
    17:00 +44°C° 0 mm 3 mps 749 mmHg 10%
    18:00 +44°C° 0 mm 3 mps 749 mmHg 10%
    19:00 +43°C° 0 mm 3 mps 749 mmHg 11%
    20:00 +40°C° 0 mm 3 mps 750 mmHg 13%
    21:00 +39°C° 0 mm 2 mps 750 mmHg 14%
    22:00 +38°C° 0 mm 2 mps 750 mmHg 15%
    23:00 +35°C° 0 mm 1 mps 750 mmHg 16%

    Pasado mañana, 26 Julio, Viernes

    Tiempo Temperatura Precipitaciones Viento Presión Humedad
    00:00 +34°C° 0 mm 1 mps 750 mmHg 17%
    01:00 +34°C° 0 mm 1 mps 750 mmHg 17%
    02:00 +34°C° 0 mm 1 mps 749 mmHg 17%
    03:00 +33°C° 0 mm 1 mps 749 mmHg 17%
    04:00 +35°C° 0 mm 2 mps 749 mmHg 17%
    05:00 +35°C° 0 mm 3 mps 749 mmHg 17%
    06:00 +35°C° 0 mm 4 mps 749 mmHg 17%
    07:00 +36°C° 0 mm 4 mps 750 mmHg 17%
    08:00 +39°C° 0 mm 5 mps 750 mmHg 16%
    09:00 +41°C° 0 mm 5 mps 750 mmHg 15%
    10:00 +42°C° 0 mm 4 mps 749 mmHg 14%
    11:00 +43°C° 0 mm 3 mps 749 mmHg 12%
    12:00 +43°C° 0 mm 2 mps 749 mmHg 11%
    13:00 +45°C° 0 mm 2 mps 748 mmHg 10%
    14:00 +46°C° 0 mm 2 mps 747 mmHg 9%
    15:00 +46°C° 0 mm 1 mps 747 mmHg 8%
    16:00 +46°C° 0 mm 2 mps 747 mmHg 8%
    17:00 +46°C° 0 mm 2 mps 747 mmHg 9%
    18:00 +46°C° 0 mm 2 mps 747 mmHg 9%
    19:00 +44°C° 0 mm 4 mps 747 mmHg 12%
    20:00 +44°C° 0 mm 6 mps 747 mmHg 15%
    21:00 +41°C° 0 mm 8 mps 748 mmHg 18%
    22:00 +40°C° 0 mm 6 mps 747 mmHg 18%
    23:00 +40°C° 0 mm 5 mps 747 mmHg 18%

    27 Julio, Sábado

    Tiempo Temperatura Precipitaciones Viento Presión Humedad
    00:00 +38°C° 0 mm 4 mps 747 mmHg 18%
    01:00 +38°C° 0 mm 3 mps 747 mmHg 19%
    02:00 +37°C° 0 mm 3 mps 746 mmHg 19%
    03:00 +37°C° 0 mm 2 mps 746 mmHg 20%
    04:00 +37°C° 0 mm 2 mps 746 mmHg 19%
    05:00 +37°C° 0 mm 2 mps 746 mmHg 19%
    06:00 +37°C° 0 mm 2 mps 746 mmHg 19%
    07:00 +38°C° 0 mm 2 mps 746 mmHg 17%
    08:00 +40°C° 0 mm 2 mps 746 mmHg 16%
    09:00 +42°C° 0 mm 3 mps 746 mmHg 15%
    10:00 +43°C° 0 mm 3 mps 746 mmHg 15%
    11:00 +44°C° 0 mm 3 mps 745 mmHg 14%
    12:00 +45°C° 0 mm 4 mps 745 mmHg 14%
    13:00 +46°C° 0 mm 5 mps 745 mmHg 13%
    14:00 +47°C° 0 mm 7 mps 744 mmHg 12%
    15:00 +48°C° 0 mm 9 mps 744 mmHg 11%
    16:00 +47°C° 0 mm 9 mps 744 mmHg 11%
    17:00 +45°C° 0 mm 10 mps 744 mmHg 11%
    18:00 +43°C° 0 mm 11 mps 744 mmHg 10%
    19:00 +42°C° 0 mm 11 mps 745 mmHg 11%
    20:00 +40°C° 0 mm 10 mps 745 mmHg 12%
    21:00 +38°C° 0 mm 10 mps 746 mmHg 13%
    22:00 +37°C° 0 mm 10 mps 746 mmHg 17%
    23:00 +37°C° 0 mm 9 mps 746 mmHg 20%

    28 Julio, Domingo

    Tiempo Temperatura Precipitaciones Viento Presión Humedad
    00:00 +35°C° 0 mm 8 mps 746 mmHg 24%
    01:00 +34°C° 0 mm 8 mps 746 mmHg 28%
    02:00 +33°C° 0 mm 7 mps 746 mmHg 33%
    03:00 +32°C° 0 mm 6 mps 746 mmHg 37%
    04:00 +32°C° 0 mm 6 mps 746 mmHg 37%
    05:00 +32°C° 0 mm 5 mps 747 mmHg 37%
    06:00 +32°C° 0 mm 5 mps 747 mmHg 37%
    07:00 +33°C° 0 mm 4 mps 747 mmHg 34%
    08:00 +35°C° 0 mm 3 mps 748 mmHg 31%
    09:00 +36°C° 0 mm 3 mps 748 mmHg 27%
    10:00 +37°C° 0 mm 3 mps 748 mmHg 25%
    11:00 +38°C° 0 mm 2 mps 748 mmHg 22%
    12:00 +40°C° 0 mm 2 mps 748 mmHg 19%
    13:00 +40°C° 0 mm 2 mps 747 mmHg 17%
    14:00 +41°C° 0 mm 2 mps 747 mmHg 16%
    15:00 +41°C° 0 mm 2 mps 747 mmHg 14%
    16:00 +42°C° 0 mm 3 mps 747 mmHg 14%
    17:00 +42°C° 0 mm 3 mps 747 mmHg 14%
    18:00 +42°C° 0 mm 3 mps 747 mmHg 14%
    19:00 +40°C° 0 mm 3 mps 748 mmHg 17%
    20:00 +38°C° 0 mm 4 mps 748 mmHg 21%
    21:00 +37°C° 0 mm 5 mps 749 mmHg 25%
    22:00 +36°C° 0 mm 4 mps 749 mmHg 30%
    23:00 +35°C° 0 mm 4 mps 749 mmHg 34%

    29 Julio, Lunes

    Tiempo Temperatura Precipitaciones Viento Presión Humedad
    00:00 +34°C° 0 mm 3 mps 749 mmHg 39%
    01:00 +33°C° 0 mm 3 mps 749 mmHg 41%
    02:00 +33°C° 0 mm 3 mps 749 mmHg 43%
    03:00 +31°C° 0 mm 2 mps 749 mmHg 45%
    04:00 +31°C° 0 mm 3 mps 750 mmHg 48%
    05:00 +31°C° 0 mm 3 mps 750 mmHg 50%
    06:00 +31°C° 0 mm 3 mps 750 mmHg 53%
    07:00 +33°C° 0 mm 3 mps 751 mmHg 50%
    08:00 +34°C° 0 mm 3 mps 751 mmHg 47%
    09:00 +34°C° 0 mm 3 mps 751 mmHg 44%
    10:00 +36°C° 0 mm 2 mps 751 mmHg 40%
    11:00 +37°C° 0 mm 2 mps 751 mmHg 35%
    12:00 +38°C° 0 mm 2 mps 750 mmHg 31%
    13:00 +39°C° 0 mm 2 mps 750 mmHg 28%
    14:00 +40°C° 0 mm 2 mps 749 mmHg 25%
    15:00 +41°C° 0 mm 2 mps 749 mmHg 23%
    16:00 +42°C° 0 mm 3 mps 749 mmHg 22%
    17:00 +43°C° 0 mm 3 mps 749 mmHg 21%
    18:00 +43°C° 0 mm 3 mps 749 mmHg 20%
    19:00 +42°C° 0 mm 3 mps 749 mmHg 21%
    20:00 +39°C° 0 mm 2 mps 749 mmHg 23%
    21:00 +38°C° 0 mm 2 mps 750 mmHg 25%
    22:00 +38°C° 0 mm 2 mps 750 mmHg 26%
    23:00 +37°C° 0 mm 2 mps 750 mmHg 26%
    Mostrar más